Find Skykraft 3D

NORAD ID: 57956 Int'l Des: 2023-084 Owner: SKYKR Country: AU operational
LEOCIRCULARRETROGRADE

当前视图

正在加载3D地球...

关于 Skykraft 3D

正在加载描述...

即将过境

Passes for default location (London). Set your location on the main map for personalized predictions.

高度历史

Loading altitude history...

两行轨道根数

1 57956U 23084BZ 26150.95947273 .00124179 00000-0 72967-3 0 9997
2 57956 97.6056 308.5631 0003110 278.4166 81.6747 15.77889007152454
Epoch: May 30, 2026 • Age: 18 hours

当前状态

高度 342.4 km
速度 7.70 km/s
星下点 -17.07°S, 11.18°W
发射日期 Jun 12, 2023
运行时间 2.9 years
类型 other

技术详情

分类 Payload
质量 50.00 kg
干质量 50.00 kg
总质量 50.00 kg
长度 0.60 m
直径 0.10 m
跨度 0.60 m
形状 Box
制造商 SKYKR
平台类型 Skykraft
阶段状态 In Orbit
所有者/国家 SKYKR/AU

Most Searched